Regional Weather Roundup
Issued by NWS Mobile, AL

Home | Current Version | Previous Version | Text Only | Print | Product List | Glossary On
Versions: 1 2 3 4 5 6 7 8 9 10 11 12 13 14 15 16 17 18 19 20 21 22 23 24 25 26 27 28 29 30 31 32 33 34 35 36 37 38 39 40 41 42 43 44 45 46 47 48 49 50
000
ASUS44 KMOB 211513
RWRMOB
REGIONAL WEATHER ROUNDUP
NATIONAL WEATHER SERVICE MOBILE AL
900 AM CST SUN JAN 21 2018

NOTE: "FAIR" INDICATES FEW OR NO CLOUDS BELOW 12,000 FEET WITH NO
      SIGNIFICANT WEATHER AND/OR OBSTRUCTIONS TO VISIBILITY.

  * THESE STATIONS ARE PART OF THE UNIVERSITY OF SOUTH ALABAMA
    MESONET AND ARE NOT UNDER NWS OR FAA QUALITY CONTROL.

ALZ061>064-211600-
COASTAL ALABAMA

CITY           SKY/WX    TMP DP  RH WIND       PRES   REMARKS
MOBILE REG APT FAIR      59  51  75 E7        30.24R
BROOKLEY FIELD FAIR      55  50  83 CALM      30.25R
USA CAMPUS*    NOT AVBL
DOG RIVER*     NOT AVBL


CITY           SKY/WX    TMP DP  RH WIND       PRES   REMARKS
GULF SHORES    FAIR      60  53  76 E5        30.24R

$$

ALZ051>060-211600-
INTERIOR SOUTHWEST AND SOUTH CENTRAL ALABAMA

CITY           SKY/WX    TMP DP  RH WIND       PRES   REMARKS
GREENVILLE     FAIR      55  41  59 CALM      30.26R
EVERGREEN      FAIR      51  42  71 CALM      30.27R
ATMORE*          N/A    N/A N/A N/A E5          N/A
ANDALUSIA/OPP  FAIR      57  41  55 VRB3      30.26R
ANDALUSIA*       N/A     55  41  58 SE3       30.26R
FLORALA APT    FAIR      55  41  59 SE5       30.29R
FLORALA*         N/A     57  43  58 E3        31.03R

$$

FLZ001>006-211600-
WESTERN FLORIDA PANHANDLE

CITY           SKY/WX    TMP DP  RH WIND       PRES   REMARKS
PENSACOLA      FAIR      59  47  64 E7        30.25R
NAS PENSACOLA  FAIR      55  50  83 E7        30.24R
MILTON         FAIR      55  40  56 E6        30.26R
WHTNG S FIELD  FAIR      59  41  51 E6        30.26R


CITY           SKY/WX    TMP DP  RH WIND       PRES   REMARKS
JAY*             N/A     55  41  58 SE7       30.26R
DUKE FIELD     SUNNY     59  39  47 VRB5      30.25R
CRESTVIEW      FAIR      53  39  59 CALM      30.28R
VALPARAISO     SUNNY     57  36  45 E8        30.26R
DESTIN         FAIR      60  39  45 E8        30.26R

$$

MSZ076-079-211600-
INTERIOR SOUTHEAST MISSISSIPPI

CITY           SKY/WX    TMP DP  RH WIND       PRES   REMARKS
LEAKESVILLE*     N/A     55  50  82 SE6       30.23R
AGRICOLA*        N/A     57  52  82 SE3       30.21S

$$

MARINE OBSERVATIONS

STATION/POSITION TIME  TEMP    WIND        PRES    WAVE
                       AIR SEA DIR/SP/G            HT/PER
                 (UTC) (F)     (DEG/KT/KT) (MB)    (FT/S)
PASCAGOULA       1448   63     140/  4/  9 1022.8R
PETIT BOIS ISLND 1448   52      80/  7/ 10 1023.8R
GRAND BAY        1345   51      70/  6     1023.0S
KATRINA CUT      1430   47      70/ 11     1023.4R
CEDAR POINT      1430   48      70/  9     1023.0R
E DAUPHIN ISLAND 1500   50      60/  7/  7 1023.2R
MIDDLE BAY LIGHT 1430   55      40/  4     1023.0R
USCG MOBILE BAY  1448   53 49   50/  3/  4 1023.9R
STATE DOCKS      1442   57 49              1023.7R
MEAHER PARK      1430   56     110/  4     1024.0R
WEEKS BAY        1345   44                 1023.0R
FORT MORGAN      1448   61     110/ 13/ 15   N/A
12 S ORANGE BCH  NOT AVBL
PENSACOLA BAY    1442   54 48   60/  4/  7 1024.3R
64 S DAUPHIN ISL 1500   65 64  100/ 10/ 12 1023.0
67 S FORT MORGAN 1430   67                 1022.7R

$$

SELECTED LOCATIONS ACROSS THE REGION

CITY           SKY/WX    TMP DP  RH WIND       PRES   REMARKS
NEW ORLEANS    FAIR      64  60  87 SE9       30.17R
GULFPORT       FAIR      60  55  83 E5        30.20R
PASCAGOULA AP  FAIR      58  52  80 MISG      30.22R
PASCAGOULA*      N/A     59  55  88 E6          N/A
HATTIESBURG    FAIR      50  48  93 CALM      30.22R
LAUREL         FAIR      55  51  86 SE6       30.22R
MERIDIAN       FAIR      56  49  77 S7        30.23R
JACKSON        FAIR      57  51  80 S10       30.17R
MONTGOMERY     FAIR      48  39  71 E5        30.29R
TROY           FAIR      52  42  69 CALM      30.28R
ASHFORD*         N/A     55  41  58 SE3       30.26R
DOTHAN         FAIR      55  42  61 CALM      30.32R
PANAMA CITY    FAIR      57  35  43 MISG      30.26R

$$




USA.gov is the U.S. government's official web portal to all federal, state and local government web resources and services.